SV2BZQ-2 Thessalonik GR current weather conditions

sailwx.info

Wind from 291 at 0 knots gusting 2

Air temperature 26.1° C
Dewpoint 22.6° C

Last reported at 2014-Jul-28 23:46 UTC.
Time now 2014-Jul-29 00:43 UTC

Location: N 40°41' E 022°51'.
View on Google Maps.

See reports from other nearby stations

  
Tides and Currents Weather Stations Pressure Air Temp Water Temp Dewpoint Dewpoint Depression Visibility Wind Speed Wind Dir Waves Ship Positions
date/time (UTC)wind fromknots sea level pressurealtimeterstation pressurevisibilityair tempwater tempwave heightnotes
2014-Jul-28 23:46 291 0 gusting 2 26.1
2014-Jul-28 23:42 291 2 gusting 3 26.1
2014-Jul-28 23:40 291 1 gusting 6 26.1
2014-Jul-28 23:32 285 2 gusting 6 26.7
2014-Jul-28 23:26 074 0 gusting 3 26.1
2014-Jul-28 23:22 076 26.7
2014-Jul-28 23:16 083 1 gusting 3 26.7
2014-Jul-28 23:12 083 26.7
2014-Jul-28 23:10 084 0 gusting 5 26.1
2014-Jul-28 23:02 159 26.7
2014-Jul-28 22:56 159 26.7
2014-Jul-28 22:55 159 26.7
2014-Jul-28 22:46 159 26.7
2014-Jul-28 22:42 159 26.7
2014-Jul-28 22:40 159 26.7
2014-Jul-28 22:32 159 26.7
2014-Jul-28 22:26 159 26.7
2014-Jul-28 22:25 159 26.7
2014-Jul-28 22:16 159 26.7
2014-Jul-28 22:12 159 26.7
2014-Jul-28 22:06 159 26.7
2014-Jul-28 22:02 159 27.2
2014-Jul-28 21:56 159 27.2
2014-Jul-28 21:55 159 26.7
2014-Jul-28 21:46 159 27.2
2014-Jul-28 21:42 159 27.2
2014-Jul-28 21:39 159 26.7
2014-Jul-28 21:32 159 27.2
2014-Jul-28 21:26 159 27.2
2014-Jul-28 21:24 159 26.7
2014-Jul-28 21:16 159 27.2
2014-Jul-28 21:12 159 27.2
2014-Jul-28 21:10 159 26.7
2014-Jul-28 21:02 159 27.2
2014-Jul-28 20:56 159 27.2
2014-Jul-28 20:54 159 26.7
2014-Jul-28 20:46 164 0 gusting 1 27.2
2014-Jul-28 20:42 168 0 gusting 3 27.2
2014-Jul-28 20:39 169 26.7
2014-Jul-28 20:32 169 1 gusting 3 27.2
2014-Jul-28 20:26 169 0 gusting 1 27.2
2014-Jul-28 20:24 169 0 gusting 2 26.7
2014-Jul-28 20:16 170 27.2
2014-Jul-28 20:12 171 27.2
2014-Jul-28 20:09 171 27.2
2014-Jul-28 20:02 171 27.2
2014-Jul-28 19:56 175 0 gusting 1 27.2
2014-Jul-28 19:54 175 0 gusting 2 27.2
2014-Jul-28 19:46 176 27.2
2014-Jul-28 19:42 176 27.2
2014-Jul-28 19:39 176 27.2
2014-Jul-28 19:32 176 27.2
2014-Jul-28 19:26 176 27.8
2014-Jul-28 19:24 176 27.2
2014-Jul-28 19:16 176 27.8
2014-Jul-28 19:12 176 27.8
2014-Jul-28 19:10 177 0 gusting 3 27.2
2014-Jul-28 19:02 178 1 gusting 2 27.8
2014-Jul-28 18:56 180 27.8
2014-Jul-28 18:53 180 27.8
2014-Jul-28 18:46 180 0 gusting 1 27.8
2014-Jul-28 18:42 180 27.8
2014-Jul-28 18:39 180 27.8
2014-Jul-28 18:32 180 27.8
2014-Jul-28 18:26 181 28.3
2014-Jul-28 18:23 180 27.8
2014-Jul-28 18:16 181 0 gusting 1 28.3
2014-Jul-28 18:12 182 28.3
2014-Jul-28 18:08 182 0 gusting 2 27.8
2014-Jul-28 18:02 190 28.3
2014-Jul-28 17:56 191 28.3
2014-Jul-28 17:53 192 28.3
2014-Jul-28 17:46 194 0 gusting 4 28.9
2014-Jul-28 17:42 201 0 gusting 2 28.9
2014-Jul-28 17:38 205 0 gusting 2 28.3
2014-Jul-28 17:32 206 28.9
2014-Jul-28 17:26 207 28.9
2014-Jul-28 17:23 207 28.9
2014-Jul-28 17:16 207 29.4
2014-Jul-28 17:12 208 1 gusting 4 29.4
2014-Jul-28 17:08 210 0 gusting 4 28.9
2014-Jul-28 17:02 213 0 gusting 4 29.4
2014-Jul-28 16:56 194 1 gusting 5 29.4
2014-Jul-28 16:53 196 0 gusting 5 29.4
2014-Jul-28 16:46 209 3 gusting 6 30.0
2014-Jul-28 16:42 197 3 gusting 4 30.0
2014-Jul-28 16:38 194 2 gusting 6 30.0
2014-Jul-28 16:32 192 0 gusting 3 30.6
2014-Jul-28 16:26 174 0 gusting 2 30.6
2014-Jul-28 16:22 173 3 gusting 6 30.6
2014-Jul-28 16:16 201 1 gusting 4 30.6
2014-Jul-28 16:12 191 1 gusting 5 30.6
2014-Jul-28 16:07 196 30.6
2014-Jul-28 16:02 175 1 gusting 4 30.6
2014-Jul-28 15:56 172 0 gusting 3 30.6
2014-Jul-28 15:52 173 0 gusting 2 30.6
2014-Jul-28 15:46 199 1 gusting 4 30.6
2014-Jul-28 15:42 202 2 gusting 6 30.6
2014-Jul-28 15:37 200 2 gusting 6 30.6
2014-Jul-28 15:32 190 1 gusting 4 31.1
2014-Jul-28 15:26 213 3 gusting 6 31.1
2014-Jul-28 15:22 185 2 gusting 5 31.1
2014-Jul-28 15:16 180 2 gusting 7 31.1
2014-Jul-28 15:12 188 2 gusting 5 31.7
2014-Jul-28 15:07 205 0 gusting 6 31.1
2014-Jul-28 15:02 168 1 gusting 5 31.7
2014-Jul-28 14:56 171 0 gusting 3 31.7
2014-Jul-28 14:52 168 3 gusting 4 31.7
2014-Jul-28 14:46 196 2 gusting 6 31.7
2014-Jul-28 14:42 170 3 gusting 4 31.7
2014-Jul-28 14:37 169 2 gusting 9 31.7
2014-Jul-28 14:32 176 4 gusting 7 32.2
2014-Jul-28 14:26 207 2 gusting 5 31.7
2014-Jul-28 14:22 168 2 gusting 5 31.7
2014-Jul-28 14:16 168 4 gusting 6 31.7
2014-Jul-28 14:12 205 3 gusting 7 31.7
2014-Jul-28 14:07 210 2 gusting 6 31.7
2014-Jul-28 14:02 168 4 gusting 5 31.7
2014-Jul-28 13:56 199 3 gusting 6 32.2
2014-Jul-28 13:52 176 3 gusting 3 32.2
2014-Jul-28 13:46 184 4 gusting 7 32.2
2014-Jul-28 13:42 167 5 gusting 6 32.8
2014-Jul-28 13:36 163 3 gusting 8 32.2
2014-Jul-28 13:32 199 2 gusting 3 32.8
2014-Jul-28 13:26 164 5 gusting 7 33.3
2014-Jul-28 13:22 175 2 gusting 8 33.3
2014-Jul-28 13:16 145 2 gusting 3 33.3
2014-Jul-28 13:12 162 2 gusting 5 32.8
2014-Jul-28 13:07 150 1 gusting 8 32.8
2014-Jul-28 13:02 155 1 gusting 4 32.8
2014-Jul-28 12:56 216 2 gusting 3 32.8
2014-Jul-28 12:52 169 3 gusting 3 32.8
2014-Jul-28 12:46 166 1 gusting 6 32.8
2014-Jul-28 12:42 168 4 gusting 9 32.8
2014-Jul-28 12:36 164 2 gusting 8 32.8
2014-Jul-28 12:32 180 5 gusting 9 32.8
2014-Jul-28 12:26 202 0 gusting 1 32.8
2014-Jul-28 12:22 192 4 gusting 6 32.8
2014-Jul-28 12:21 155 3 gusting 9 32.2
2014-Jul-28 12:12 195 4 gusting 9 32.8
2014-Jul-28 12:06 209 3 gusting 7 32.2
2014-Jul-28 12:02 174 0 gusting 4 32.8
2014-Jul-28 11:56 192 2 gusting 1 32.2
2014-Jul-28 11:52 202 2 gusting 6 32.8
2014-Jul-28 11:46 187 2 gusting 2 32.8
2014-Jul-28 11:42 198 5 gusting 8 32.8
2014-Jul-28 11:36 198 2 gusting 10 32.8
2014-Jul-28 11:32 180 4 gusting 5 33.3
2014-Jul-28 11:26 180 1 gusting 4 32.8
2014-Jul-28 11:22 200 3 gusting 4 32.8
2014-Jul-28 11:20 196 3 gusting 6 32.8
2014-Jul-28 11:12 192 3 gusting 6 32.8
2014-Jul-28 11:06 180 2 gusting 5 32.8
2014-Jul-28 11:05 155 2 gusting 5 32.8
2014-Jul-28 10:56 160 0 gusting 5 32.8
2014-Jul-28 10:52 161 1 gusting 1 32.8
2014-Jul-28 10:46 163 4 gusting 6 32.8
2014-Jul-28 10:42 202 1 gusting 7 32.8
2014-Jul-28 10:36 143 2 gusting 4 32.8
2014-Jul-28 10:35 136 2 gusting 7 32.8
2014-Jul-28 10:26 238 0 gusting 3 32.8
2014-Jul-28 10:22 206 3 gusting 6 32.8
2014-Jul-28 10:20 182 1 gusting 6 32.2
2014-Jul-28 10:12 169 4 gusting 6 32.8
2014-Jul-28 10:06 201 3 gusting 6 32.2
2014-Jul-28 10:05 195 2 gusting 6 32.2
2014-Jul-28 09:56 193 3 gusting 4 32.2
2014-Jul-28 09:52 215 0 gusting 3 32.2
2014-Jul-28 09:50 210 3 gusting 7 31.7
2014-Jul-28 09:42 207 5 gusting 6 32.2
2014-Jul-28 09:36 208 1 gusting 4 31.7
2014-Jul-28 09:35 238 0 gusting 7 31.7
2014-Jul-28 09:26 223 0 gusting 0 31.7
2014-Jul-28 09:22 205 1 gusting 6 32.2
2014-Jul-28 09:19 205 3 gusting 6 31.7
2014-Jul-28 09:12 207 3 gusting 6 32.2
2014-Jul-28 09:06 200 0 gusting 1 31.7
2014-Jul-28 09:04 200 31.1
2014-Jul-28 08:56 217 31.7
2014-Jul-28 08:52 217 1 gusting 4 31.1
2014-Jul-28 08:49 248 2 gusting 7 31.1
2014-Jul-28 08:42 207 1 gusting 2 31.7
2014-Jul-28 08:36 220 2 gusting 4 31.7
2014-Jul-28 08:34 220 1 gusting 6 31.1
2014-Jul-28 08:26 238 0 gusting 0 31.7
2014-Jul-28 08:22 229 1 gusting 3 31.1
2014-Jul-28 08:20 232 0 gusting 6 31.1
2014-Jul-28 08:12 191 2 gusting 4 31.1
2014-Jul-28 08:06 188 31.1
2014-Jul-28 08:04 188 30.6
2014-Jul-28 07:56 175 0 gusting 4 31.1
2014-Jul-28 07:52 170 2 gusting 4 31.1
2014-Jul-28 07:49 169 1 gusting 4 30.6
2014-Jul-28 07:42 173 0 gusting 4 30.6
2014-Jul-28 07:36 202 30.6
2014-Jul-28 07:33 202 30.0
2014-Jul-28 07:26 198 0 gusting 1 30.6
2014-Jul-28 07:22 194 0 gusting 3 30.0
2014-Jul-28 07:18 190 30.0
2014-Jul-28 07:12 190 30.0
2014-Jul-28 07:06 190 29.4
2014-Jul-28 07:03 190 29.4
2014-Jul-28 06:56 188 1 gusting 3 29.4
2014-Jul-28 06:52 185 2 gusting 3 29.4
2014-Jul-28 06:48 169 28.9
2014-Jul-28 06:42 170 1 gusting 1 28.9
2014-Jul-28 06:36 157 28.9
2014-Jul-28 06:33 157 0 gusting 4 28.3
2014-Jul-28 06:26 157 0 gusting 1 28.3
2014-Jul-28 06:22 164 28.3
2014-Jul-28 06:18 159 0 gusting 5 28.3
2014-Jul-28 06:12 139 1 gusting 2 28.3
2014-Jul-28 06:06 134 1 gusting 2 27.8
2014-Jul-28 06:03 131 27.2
2014-Jul-28 05:56 059 27.2
2014-Jul-28 05:52 059 26.7
2014-Jul-28 05:47 057 26.1
2014-Jul-28 05:42 055 26.1
2014-Jul-28 05:36 053 0 gusting 2 25.6
2014-Jul-28 05:32 053 25.6
2014-Jul-28 05:26 052 1 gusting 2 25.0
2014-Jul-28 05:22 051 25.0
2014-Jul-28 05:17 051 24.4
2014-Jul-28 05:12 051 24.4
2014-Jul-28 05:06 051 24.4
2014-Jul-28 05:02 051 0 gusting 1 24.4
2014-Jul-28 04:56 052 23.9
2014-Jul-28 04:52 052 23.9
2014-Jul-28 04:47 052 23.3
2014-Jul-28 04:42 052 23.9
2014-Jul-28 04:36 052 23.3
2014-Jul-28 04:32 052 23.3
2014-Jul-28 04:26 052 23.3
2014-Jul-28 04:22 052 23.3
2014-Jul-28 04:16 052 22.8
2014-Jul-28 04:12 052 23.3
2014-Jul-28 04:06 052 23.3
2014-Jul-28 04:02 052 23.3
2014-Jul-28 03:56 053 23.3
2014-Jul-28 03:52 053 23.3
2014-Jul-28 03:46 053 22.8
2014-Jul-28 03:42 053 0 gusting 1 23.3
2014-Jul-28 03:36 053 23.3
2014-Jul-28 03:32 053 23.3
2014-Jul-28 03:26 053 0 gusting 1 23.3
2014-Jul-28 03:22 053 0 gusting 3 23.3
2014-Jul-28 03:16 053 0 gusting 2 23.3
2014-Jul-28 03:12 053 23.9
2014-Jul-28 03:06 053 23.9
2014-Jul-28 03:02 053 23.9
2014-Jul-28 02:56 053 23.9
2014-Jul-28 02:52 053 23.9
2014-Jul-28 02:46 054 23.9
2014-Jul-28 02:42 053 24.4
2014-Jul-28 02:36 053 24.4
2014-Jul-28 02:32 054 24.4
2014-Jul-28 02:26 054 24.4
2014-Jul-28 02:22 054 24.4
2014-Jul-28 02:16 055 24.4
2014-Jul-28 02:12 055 24.4
2014-Jul-28 02:06 055 24.4
2014-Jul-28 02:02 055 24.4
2014-Jul-28 02:00 055 24.4
2014-Jul-28 01:52 053 0 gusting 3 24.4
2014-Jul-28 01:46 032 0 24.4
2014-Jul-28 01:45 032 24.4
2014-Jul-28 01:36 320 24.4
2014-Jul-28 01:32 320 0 gusting 1 24.4
2014-Jul-28 01:30 319 24.4
2014-Jul-28 01:22 320 1 gusting 2 25.0
2014-Jul-28 01:16 25.0
2014-Jul-28 01:15 360 0 gusting 3 24.4
2014-Jul-28 01:06 312 25.0
2014-Jul-28 01:02 312 1 gusting 3 25.0
2014-Jul-28 01:00 313 25.0
2014-Jul-28 00:52 043 25.0
2014-Jul-28 00:46 045 25.0
2014-Jul-28 00:45 045 25.0
2014-Jul-28 00:36 067 1 gusting 3 25.0
2014-Jul-28 00:32 068 0 gusting 3 25.6
2014-Jul-28 00:30 067 2 gusting 6 25.0
2014-Jul-28 00:22 065 1 gusting 4 25.6
2014-Jul-28 00:16 078 4 gusting 6 25.6
2014-Jul-28 00:15 087 3 gusting 6 25.6
2014-Jul-28 00:06 076 0 gusting 3 25.6
2014-Jul-28 00:02 054 0 gusting 4 26.1
2014-Jul-28 00:00 030 25.6
2014-Jul-27 23:52 002 0 gusting 2 26.1
2014-Jul-27 23:46 057 26.1
2014-Jul-27 23:45 057 25.6
2014-Jul-27 23:36 065 0 gusting 1 26.1
2014-Jul-27 23:32 066 26.1
2014-Jul-27 23:30 066 0 gusting 3 25.6
2014-Jul-27 23:22 027 26.1
2014-Jul-27 23:16 029 0 gusting 1 26.1
2014-Jul-27 23:15 029 0 gusting 5 25.6
2014-Jul-27 23:06 315 1 gusting 3 26.1
2014-Jul-27 23:02 317 3 gusting 4 26.1
2014-Jul-27 22:59 315 1 gusting 4 25.6
2014-Jul-27 22:52 340 26.1
2014-Jul-27 22:46 252 1 gusting 2 26.1
2014-Jul-27 22:44 252 1 gusting 3 26.1
2014-Jul-27 22:36 248 26.1
2014-Jul-27 22:32 248 26.1
2014-Jul-27 22:29 248 26.1
2014-Jul-27 22:22 248 0 gusting 1 26.1
2014-Jul-27 22:16 246 0 gusting 1 26.1
2014-Jul-27 22:14 246 0 gusting 2 26.1
2014-Jul-27 22:06 246 26.1
2014-Jul-27 22:02 245 26.7
2014-Jul-27 21:59 245 26.1
2014-Jul-27 21:52 245 26.7
2014-Jul-27 21:46 245 26.7
2014-Jul-27 21:44 245 26.7
2014-Jul-27 21:36 245 26.7
2014-Jul-27 21:32 245 27.2
2014-Jul-27 21:29 245 26.7
2014-Jul-27 21:22 245 27.2
2014-Jul-27 21:16 245 27.2
2014-Jul-27 21:14 245 26.7
2014-Jul-27 21:06 245 27.2
2014-Jul-27 21:02 245 27.2
2014-Jul-27 20:59 245 26.7
2014-Jul-27 20:52 244 0 27.2
2014-Jul-27 20:46 242 27.2
2014-Jul-27 20:44 242 27.2
2014-Jul-27 20:36 242 27.2
2014-Jul-27 20:32 242 27.2
2014-Jul-27 20:29 242 27.2
2014-Jul-27 20:22 242 27.2
2014-Jul-27 20:16 242 27.2
2014-Jul-27 20:14 242 27.2
2014-Jul-27 20:06 242 27.8
2014-Jul-27 20:02 242 27.8
2014-Jul-27 19:58 242 27.2
2014-Jul-27 19:52 242 27.8
2014-Jul-27 19:46 242 27.8
2014-Jul-27 19:43 242 27.2
2014-Jul-27 19:36 242 27.8
2014-Jul-27 19:32 242 27.8
2014-Jul-27 19:28 241 27.2
2014-Jul-27 19:22 241 27.8
2014-Jul-27 19:16 242 27.8
2014-Jul-27 19:13 242 27.2
2014-Jul-27 19:06 240 0 gusting 0 27.8
2014-Jul-27 19:02 240 0 gusting 0 27.8
2014-Jul-27 18:58 240 1 gusting 3 27.8
2014-Jul-27 18:52 191 27.8
2014-Jul-27 18:46 191 27.8
2014-Jul-27 18:43 191 27.8
2014-Jul-27 18:36 191 27.8
2014-Jul-27 18:32 191 27.8
2014-Jul-27 18:28 191 27.8
2014-Jul-27 18:22 190 27.8
2014-Jul-27 18:16 190 28.3
2014-Jul-27 18:13 190 27.8
2014-Jul-27 18:06 190 28.3
2014-Jul-27 18:02 190 28.3
2014-Jul-27 17:58 190 27.8
2014-Jul-27 17:52 190 28.3
2014-Jul-27 17:46 190 0 gusting 0 28.3
2014-Jul-27 17:43 191 0 gusting 5 28.3
2014-Jul-27 17:36 169 2 gusting 5 28.9
2014-Jul-27 17:32 158 28.9
2014-Jul-27 17:27 184 28.3
2014-Jul-27 17:22 201 2 gusting 6 28.9
2014-Jul-27 17:16 189 3 gusting 6 28.9
2014-Jul-27 17:13 199 2 gusting 6 28.9
2014-Jul-27 17:06 190 2 gusting 4 28.9
2014-Jul-27 17:02 199 1 gusting 5 28.9
2014-Jul-27 16:57 198 2 gusting 7 28.9
2014-Jul-27 16:52 197 3 gusting 6 29.4
2014-Jul-27 16:46 172 5 gusting 7 29.4
2014-Jul-27 16:43 196 3 gusting 6 28.9
2014-Jul-27 16:36 199 3 gusting 6 29.4
2014-Jul-27 16:32 176 6 gusting 9 29.4
2014-Jul-27 16:27 206 5 gusting 9 29.4
2014-Jul-27 16:22 193 4 gusting 8 29.4
2014-Jul-27 16:16 177 4 gusting 6 30.0
2014-Jul-27 16:12 187 5 gusting 8 30.0
2014-Jul-27 16:06 168 5 gusting 9 30.0
2014-Jul-27 16:02 200 4 gusting 8 30.0
2014-Jul-27 15:57 210 5 gusting 10 30.0
2014-Jul-27 15:52 193 5 gusting 8 30.6
2014-Jul-27 15:46 196 5 gusting 7 30.6
2014-Jul-27 15:42 176 5 gusting 9 30.6
2014-Jul-27 15:36 191 1 gusting 7 31.1
2014-Jul-27 15:32 168 4 gusting 6 31.1
2014-Jul-27 15:27 189 6 gusting 14 31.1
2014-Jul-27 15:22 175 6 gusting 9 31.7
2014-Jul-27 15:16 190 4 gusting 6 31.1
2014-Jul-27 15:12 195 5 gusting 8 31.1
2014-Jul-27 15:06 190 4 gusting 7 31.1
2014-Jul-27 15:02 171 4 gusting 9 31.1
2014-Jul-27 14:56 163 3 gusting 8 31.1
2014-Jul-27 14:52 190 4 gusting 7 31.1
2014-Jul-27 14:46 162 4 gusting 6 31.7
2014-Jul-27 14:42 194 3 gusting 8 31.7
2014-Jul-27 14:36 203 5 gusting 10 31.7
2014-Jul-27 14:32 179 3 gusting 7 31.1
2014-Jul-27 14:26 212 4 gusting 9 31.1
2014-Jul-27 14:22 165 6 gusting 7 31.1
2014-Jul-27 14:16 202 3 gusting 6 31.7
2014-Jul-27 14:12 179 4 gusting 6 31.7
2014-Jul-27 14:06 201 6 gusting 9 31.7
2014-Jul-27 14:02 178 5 gusting 10 31.7
2014-Jul-27 13:56 187 2 gusting 6 31.7
2014-Jul-27 13:52 187 6 gusting 7 31.7
2014-Jul-27 13:46 167 6 gusting 9 31.7
2014-Jul-27 13:42 195 5 gusting 6 31.7
2014-Jul-27 13:36 197 6 gusting 10 31.7
2014-Jul-27 13:32 184 6 gusting 8 32.2
2014-Jul-27 13:26 204 6 gusting 7 32.2
2014-Jul-27 13:22 170 5 gusting 8 32.2
2014-Jul-27 13:16 184 4 gusting 7 32.2
2014-Jul-27 13:12 184 4 gusting 9 32.2
2014-Jul-27 13:06 164 5 gusting 8 32.2
2014-Jul-27 13:02 178 5 gusting 10 32.2
2014-Jul-27 12:56 184 5 gusting 10 31.7
2014-Jul-27 12:52 168 5 gusting 12 32.2
2014-Jul-27 12:46 190 4 gusting 6 32.2
2014-Jul-27 12:42 194 4 gusting 7 32.2
2014-Jul-27 12:36 189 5 gusting 11 31.7
2014-Jul-27 12:32 185 5 gusting 6 32.2
2014-Jul-27 12:26 153 5 gusting 10 32.2
2014-Jul-27 12:22 184 4 gusting 5 32.2
2014-Jul-27 12:16 205 2 gusting 4 32.2
2014-Jul-27 12:12 198 3 gusting 7 32.2
2014-Jul-27 12:10 182 3 gusting 13 32.2
2014-Jul-27 12:02 183 3 gusting 8 32.8
2014-Jul-27 11:56 207 6 gusting 11 32.8
2014-Jul-27 11:52 188 3 gusting 6 33.3
2014-Jul-27 11:46 189 2 gusting 3 33.3
2014-Jul-27 11:42 172 4 gusting 7 33.3
2014-Jul-27 11:40 176 2 gusting 6 33.3
2014-Jul-27 11:32 166 3 gusting 7 33.3
2014-Jul-27 11:26 172 3 gusting 5 33.3
2014-Jul-27 11:25 175 3 gusting 7 32.8
2014-Jul-27 11:16 166 4 gusting 6 33.3
2014-Jul-27 11:12 167 3 gusting 6 33.3
2014-Jul-27 11:10 198 4 gusting 7 32.8
2014-Jul-27 11:02 187 4 gusting 6 33.3
2014-Jul-27 10:56 209 2 gusting 9 32.8
2014-Jul-27 10:52 171 4 gusting 6 32.8
2014-Jul-27 10:46 198 6 gusting 9 32.8
2014-Jul-27 10:42 177 6 gusting 7 32.8
2014-Jul-27 10:40 221 6 gusting 12 32.8
2014-Jul-27 10:32 206 2 gusting 8 33.3
2014-Jul-27 10:26 199 2 gusting 7 33.3
2014-Jul-27 10:22 175 5 gusting 7 33.3
2014-Jul-27 10:16 211 3 gusting 8 33.3
2014-Jul-27 10:12 182 4 gusting 6 32.8
2014-Jul-27 10:10 181 2 gusting 8 32.8
2014-Jul-27 10:02 191 4 gusting 7 33.3
2014-Jul-27 09:56 196 3 gusting 5 33.3
2014-Jul-27 09:54 184 2 gusting 9 32.8
2014-Jul-27 09:46 168 2 gusting 6 33.3
2014-Jul-27 09:42 180 3 gusting 7 33.3
2014-Jul-27 09:39 221 2 gusting 12 33.3
2014-Jul-27 09:32 200 1 gusting 8 33.3
2014-Jul-27 09:26 199 5 gusting 6 33.3
2014-Jul-27 09:24 193 4 gusting 7 33.3
2014-Jul-27 09:16 211 1 gusting 2 33.9
2014-Jul-27 09:12 179 2 gusting 3 33.9
2014-Jul-27 09:09 187 3 gusting 6 33.9
2014-Jul-27 09:02 164 1 gusting 5 33.3
2014-Jul-27 08:56 162 1 gusting 5 33.9
2014-Jul-27 08:54 155 0 gusting 7 33.3
2014-Jul-27 08:46 183 2 gusting 5 33.3
2014-Jul-27 08:42 181 1 gusting 5 33.3
2014-Jul-27 08:39 213 1 gusting 5 32.8
2014-Jul-27 08:32 162 2 gusting 4 32.8
2014-Jul-27 08:26 171 3 gusting 5 32.8
2014-Jul-27 08:24 167 0 gusting 5 32.8
2014-Jul-27 08:16 188 0 gusting 0 32.2
2014-Jul-27 08:12 189 32.2
2014-Jul-27 08:08 188 31.7
2014-Jul-27 08:02 168 0 gusting 0 31.7
2014-Jul-27 07:56 203 1 gusting 2 31.7
2014-Jul-27 07:53 205 2 gusting 6 31.7
2014-Jul-27 07:46 179 0 gusting 6 31.7
2014-Jul-27 07:42 171 2 gusting 4 31.7
2014-Jul-27 07:38 197 2 gusting 6 31.1
2014-Jul-27 07:32 200 0 gusting 1 31.7
2014-Jul-27 07:26 207 1 gusting 5 31.1
2014-Jul-27 07:23 202 2 gusting 5 30.6
2014-Jul-27 07:16 179 1 gusting 1 30.6
2014-Jul-27 07:12 069 0 gusting 1 30.0
2014-Jul-27 07:08 067 2 gusting 4 30.0
2014-Jul-27 07:02 067 2 gusting 4 29.4
2014-Jul-27 06:56 073 3 gusting 6 29.4
2014-Jul-27 06:53 072 1 gusting 4 28.9
2014-Jul-27 06:46 076 1 gusting 2 28.3
2014-Jul-27 06:42 075 2 gusting 3 28.3
2014-Jul-27 06:38 074 1 gusting 4 27.8
2014-Jul-27 06:32 315 27.2
2014-Jul-27 06:26 315 0 gusting 1 27.2
2014-Jul-27 06:23 315 1 gusting 4 26.7
2014-Jul-27 06:16 315 0 gusting 0 26.7
2014-Jul-27 06:12 315 26.7
2014-Jul-27 06:07 315 25.6
2014-Jul-27 06:02 315 25.6
2014-Jul-27 05:56 313 2 gusting 3 25.6
2014-Jul-27 05:52 313 2 gusting 4 25.6
2014-Jul-27 05:46 316 0 gusting 1 25.0
2014-Jul-27 05:42 318 1 gusting 2 25.0
2014-Jul-27 05:37 319 0 gusting 1 24.4
2014-Jul-27 05:32 318 0 gusting 1 24.4
2014-Jul-27 05:26 318 23.9
2014-Jul-27 05:22 319 23.9
2014-Jul-27 05:16 319 23.9
2014-Jul-27 05:12 319 0 gusting 1 23.9
2014-Jul-27 05:07 319 23.3
2014-Jul-27 05:02 319 23.3
2014-Jul-27 04:56 319 22.8
2014-Jul-27 04:52 319 22.8
2014-Jul-27 04:46 319 22.8
2014-Jul-27 04:42 319 22.8
2014-Jul-27 04:36 319 22.2
2014-Jul-27 04:32 319 1 gusting 1 22.2
2014-Jul-27 04:26 319 22.2
2014-Jul-27 04:23 319 1 gusting 5 21.7
2014-Jul-27 04:16 298 21.7
2014-Jul-27 04:12 299 2 gusting 3 21.7
2014-Jul-27 04:06 294 1 gusting 3 21.7
2014-Jul-27 04:02 298 1 gusting 2 21.7
2014-Jul-27 03:56 300 0 gusting 2 21.7
2014-Jul-27 03:52 300 1 gusting 2 21.7
2014-Jul-27 03:46 300 0 gusting 2 21.7
2014-Jul-27 03:42 301 0 gusting 2 21.7
2014-Jul-27 03:36 301 21.7
2014-Jul-27 03:32 301 21.7
2014-Jul-27 03:26 301 1 gusting 2 22.2
2014-Jul-27 03:22 302 1 gusting 3 22.2
2014-Jul-27 03:16 304 0 gusting 1 22.2
2014-Jul-27 03:12 304 2 gusting 3 22.2
2014-Jul-27 03:06 306 0 gusting 2 22.2
2014-Jul-27 03:02 307 22.8
2014-Jul-27 02:56 307 0 gusting 1 22.8
2014-Jul-27 02:52 307 0 gusting 0 22.8
2014-Jul-27 02:46 310 0 gusting 2 22.8
2014-Jul-27 02:42 311 0 gusting 1 22.8
2014-Jul-27 02:36 311 22.8
2014-Jul-27 02:35 310 22.2
2014-Jul-27 02:26 311 22.8
2014-Jul-27 02:22 311 22.8
2014-Jul-27 02:16 311 22.8
2014-Jul-27 02:12 311 22.8
2014-Jul-27 02:06 311 2 gusting 3 22.8
2014-Jul-27 02:05 311 2 gusting 4 22.2
2014-Jul-27 01:56 296 3 gusting 3 22.8
2014-Jul-27 01:52 283 2 gusting 2 22.8
2014-Jul-27 01:50 281 1 gusting 4 22.8
2014-Jul-27 01:42 279 2 gusting 3 23.3
2014-Jul-27 01:36 260 2 gusting 3 23.3
2014-Jul-27 01:35 261 1 gusting 3 22.8
2014-Jul-27 01:26 257 1 gusting 2 23.3
2014-Jul-27 01:22 257 0 gusting 2 23.3
2014-Jul-27 01:20 257 22.8
2014-Jul-27 01:12 257 23.3
2014-Jul-27 01:06 257 23.3
2014-Jul-27 01:05 256 23.3
2014-Jul-27 00:56 255 0 gusting 2 23.3
2014-Jul-27 00:52 255 1 gusting 2 23.3
2014-Jul-27 00:50 254 1 gusting 3 23.3
2014-Jul-27 00:42 246 0 gusting 1 23.9
2014-Jul-27 00:36 245 1 gusting 2 23.9
2014-Jul-27 00:35 245 0 gusting 2 23.3
2014-Jul-27 00:26 245 0 gusting 0 23.9
2014-Jul-27 00:22 245 0 gusting 2 23.9
2014-Jul-27 00:19 245 23.9
2014-Jul-27 00:12 245 1 gusting 2 23.9
2014-Jul-27 00:06 244 2 gusting 3 24.4
2014-Jul-27 00:04 244 1 gusting 3 23.9